Back to catalog

NOAA 16 DEB

AliveSSO
NORAD 41152·DEBRIS·🇺🇸 United States

Launched Sep 21, 2000 from Vandenberg Space Force Base

Loading…

Next Passes (next 24 hours)

TLE

FreshSource: Space-Track

Epoch: Sep 14, 2026, 14:07 UTC

1 41152U 00055CK  26257.58829265  .00003333  00000-0  11112-2 0  9990
2 41152  98.8441  24.8446 0009165 266.3961  93.6177 14.38231906559516

Track NOAA 16 DEB in real time with AllMySat

Download on the App Store